Location: ?
(35.4064°N, 139.3593°E)
Time: 03:36:33
(UTC+00:00)

CZ-3 R/B - Pass Details

Date: 18 April 2024
Orbit: 493 x 10074 km, 28.3° (Epoch: 23 May)

Event Time Altitude Azimuth Distance (km) Brightness Sun altitude
Exits shadow 19:26:21 - 247° (WSW) 8,620 5.6 -8.4°
Reaches altitude 10° 19:27:34 10° 247° (WSW) 8,281 5.6 -8.1°
Maximum altitude 19:48:10 52° 178° (S) 2,101 3.2 -4.2°
Drops below altitude 10° 19:54:27 10° 102° (ESE) 2,740 5.0 -2.9°
Sets 19:56:12 0° 96° (E) 3,349 5.8 -2.6°
